Location: Moulis
(42.9609°N, 1.0909°E)
Time: 02:57:25
(UTC+00:00)

NOSS 2-3 (C) - Visible Passes

Search period start: 17 March 2026 00:00
Search period end: 27 March 2026 00:00
Orbit: 455 x 1720 km, 63.3° (Epoch: 16 March)

Date Brightness Start Highest point End Pass type
(mag) Time Alt. Az. Time Alt. Az. Time Alt. Az.
17 Mar 5.4 02:48:42 43° ESE 02:48:42 43° ESE 02:53:54 10° SE visible
17 Mar 5.4 04:35:50 26° W 04:37:05 27° WSW 04:43:19 10° S visible
17 Mar 6.1 20:17:30 10° WNW 20:19:21 14° NW 20:21:17 10° N visible
18 Mar 6.9 02:01:38 14° ESE 02:01:38 14° ESE 02:02:41 10° ESE visible
18 Mar 5.2 03:48:47 38° SSW 03:48:47 38° SSW 03:54:08 10° S visible
18 Mar 5.3 19:25:56 10° W 19:28:49 25° NW 19:31:52 10° NNE visible
19 Mar 6.4 03:01:55 20° SSE 03:01:55 20° SSE 03:04:11 10° SSE visible
19 Mar 6.4 04:49:05 13° SW 04:49:05 13° SW 04:50:39 10° SW visible
19 Mar 3.7 18:35:07 10° SW 18:38:30 55° NW 18:42:01 10° NNE visible
20 Mar 6.8 04:02:18 12° SSW 04:02:18 12° SSW 04:02:51 10° S visible
20 Mar 6.1 19:37:17 10° WNW 19:39:01 13° NNW 19:40:51 10° N visible
21 Mar 5.4 18:45:37 10° W 18:48:28 24° NW 18:51:27 10° NNE visible
23 Mar 6.0 18:57:01 10° WNW 18:58:40 13° NNW 19:00:21 10° N visible
